Погода в Гусеве

Россия / Томская область     56°53′23″N   84°01′30″E
темп.,
°C
ветер,
м/с
пор.,
м/с
влажн.,
%
обл.,
%
осадки,
мм/ч
давл.,
гПа
погр.,
м
2 марта, вт
вт201:00−19св4895100 0.1 1014280
04:00−19св4796100 0.0 1013279
07:00−22ссв3697100 0.1 1014160
10:00−21св3596100 0.0 1015222
13:00−17св2392100 0.1 1016310
16:00−15св1289100 0.1 1016378
19:00−16с1197100 0.3 101720
22:00−18всв129988 0.1 101720
3 марта, ср
ср301:00−20юв2210091 0.1 101720
04:00−22юв1110093 0.0 101720
07:00−23юв1210092 0.1 101820
10:00−20ююв239886 0.0 101890
13:00−14ю249192 0.1 1018375
16:00−11ю3591100 0.0 1018433
19:00−15ю349596 0.1 101986
22:00−15ю4109685 0.0 1019252
4 марта, чт
чт401:00−16ю4109586 0.1 1019249
04:00−15ю5139598 0.0 1018383
07:00−14ю7139299 0.1 1018519
10:00−12ююз71293100 0.6 1016625
13:00−9ю71393100 1.3 1016690
16:00−6ююз71293100 0.6 1014755
19:00−6ююз61294100 1.3 1013752
22:00−5ююз61393100 0.4 1012750
5 марта, пт
пт501:00−4ююз71494100 0.9 1010849
04:00−4ююз71490100 0.4 1009749
07:00−6ю71490100 0.6 1008624
10:00−6ю71391100 0.3 1006646
13:00−5ююз71394100 1.1 1005730
16:00−3юз71392100 0.6 10051047
19:00−5зюз81586100 0.7 1010934
22:00−7юз71686100 0.0 1012794
6 марта, сб
сб601:00−7юз71393100 0.4 10121036
04:00−6юз61391100 0.3 1012900
07:00−6ююз51294100 0.6 1012739
10:00−5ююз71393100 0.6 1010877
13:00−5ююз71293100 1.6 1009907
16:00−5ююз71292100 1.0 10071044
19:00−5ююз71393100 1.6 1006998
22:00−4юз71590100 0.7 1004990